Tracking 19176 objects as of 26-May-2018
HD Live streaming from Space Station
objects crossing your sky now

IRIDIUM 40

Track IRIDIUM 40 now!
10-day predictions
IRIDIUM 40 is classified as:


NORAD ID: 25041
Int'l Code: 1997-069C
Perigee: 267.6 km
Apogee: 444.8 km
Inclination: 86.4 °
Period: 91.5 minutes
Semi major axis: 6727 km
RCS: 3.773 m2 (large)
Launch date: November 9, 1997
Source: United States (US)
Launch site: AIR FORCE WESTERN TEST RANGE (AFWTR)
aabbcc
Your satellite tracking list
Your tracking list is empty




NASA's NSSDC Master Catalog

Two Line Element Set (TLE):
1 25041U 97069C   18145.72090727 +.00085714 +81121-6 +35567-3 0  9999
2 25041 086.3746 205.4092 0131695 024.3415 336.3999 15.73452027079963
Source of the keplerian elements: AFSPC